Weather History for Homestead AFB, FL

Change the Weather History Date:

Friday, February 15, 2013

  Actual Average Record
Temperature  
Mean Temperature 68 °F -  
Max Temperature 73 °F 77 °F 88 °F (1944)
Min Temperature 62 °F 54 °F 35 °F (1943)
Cooling Degree Days 2    
Growing Degree Days 18 (Base 50)    
Moisture  
Dew Point 66 °F    
Average Humidity 95    
Maximum Humidity 100    
Minimum Humidity 83    
Precipitation  
Precipitation 0.75 in - - ()
Sea Level Pressure  
Sea Level Pressure 29.98 in    
Wind  
Wind Speed 7 mph (North)    
Max Wind Speed 15 mph    
Max Gust Speed -    
Visibility 9 miles    
Events Rain    
Averages and records for this station are not official NWS values.
T = Trace of Precipitation, MM = Missing Value Source: NWS Daily Summary

Daily Weather History Graph

Daily Weather History Graph

Search for Another Location

Airport:

Trip Planner

Search our weather history database for the weather conditions in past years. The results will help you decide how hot, cold, wet, or windy it might be!

Date:

Astronomy

Feb. 15, 2013 Rise Set
Actual Time 6:56 AM EST 6:15 PM EST
Civil Twilight 6:32 AM EST 6:38 PM EST
Nautical Twilight 6:05 AM EST 7:05 PM EST
Astronomical Twilight 5:39 AM EST 7:32 PM EST
Moon 10:10 AM EST (2/15) 11:32 PM EST (2/15)
Length of Visible Light 12h 06m
Length of Day
11h 19m
Waxing Crescent, 30% of the Moon is Illuminated
Feb 15
Waxing Crescent
Feb 17
First Quarter
Feb 25
Full
Mar 4
Last Quarter
Mar 11
New

Hourly Weather History & Observations

Time (EST) Temp. Dew Point Humidity Pressure Visibility Wind Dir Wind Speed Gust Speed Precip Events Conditions
12:03 AM 62.6 °F 62.6 °F 100% 30.01 in 10.0 mi North 10.4 mph - N/A Rain Light Rain
12:08 AM 62.6 °F 62.6 °F 100% 30.02 in 9.0 mi North 8.1 mph - N/A Rain Heavy Rain
12:18 AM 62.6 °F 62.6 °F 100% 30.00 in 3.0 mi North 9.2 mph - N/A Rain Heavy Rain
12:33 AM 62.6 °F 62.6 °F 100% 29.99 in 6.0 mi North 12.7 mph - N/A Rain Heavy Rain
12:38 AM 62.6 °F 62.6 °F 100% 29.99 in 10.0 mi NNE 11.5 mph - N/A Rain Light Rain
12:43 AM 62.6 °F 62.6 °F 100% 29.99 in 10.0 mi NNE 8.1 mph - N/A Rain Light Rain
12:52 AM 62.6 °F 62.6 °F 100% 30.00 in 10.0 mi North 10.4 mph - N/A   Mostly Cloudy
12:58 AM 62.6 °F 62.6 °F 100% 30.01 in 10.0 mi North 8.1 mph - 0.19 in   Mostly Cloudy
1:08 AM 62.6 °F 62.6 °F 100% 30.00 in 10.0 mi NNW 5.8 mph - N/A   Overcast
1:13 AM 62.6 °F 62.6 °F 100% 30.00 in 10.0 mi NNW 8.1 mph - N/A   Overcast
1:17 AM 62.6 °F 62.6 °F 100% 30.00 in 10.0 mi NNW 6.9 mph - N/A   Light Drizzle
1:37 AM 62.6 °F 62.6 °F 100% 29.99 in 8.0 mi North 5.8 mph - N/A Rain Rain
1:47 AM 62.6 °F 62.6 °F 100% 29.99 in 5.0 mi North 5.8 mph - N/A Rain Light Rain
1:52 AM 62.6 °F 62.6 °F 100% 29.99 in 7.0 mi North 5.8 mph - N/A Rain Light Rain
1:58 AM 62.6 °F 62.6 °F 100% 30.00 in 10.0 mi North 5.8 mph - 0.06 in   Light Drizzle
1:59 AM 62.6 °F 62.6 °F 100% 29.99 in 10.0 mi North 5.8 mph - N/A   Overcast
2:02 AM 64.4 °F 62.6 °F 94% 29.98 in 10.0 mi North 6.9 mph - N/A Rain Light Rain
2:12 AM 64.4 °F 62.6 °F 94% 29.98 in 10.0 mi North 4.6 mph - N/A Rain Light Rain
2:15 AM 64.4 °F 62.6 °F 94% 29.98 in 10.0 mi North 5.8 mph - N/A   Mostly Cloudy
2:21 AM 64.4 °F 62.6 °F 94% 29.97 in 10.0 mi North 5.8 mph - N/A Rain Light Rain
2:39 AM 64.4 °F 62.6 °F 94% 29.98 in 10.0 mi NNW 3.5 mph - N/A   Scattered Clouds
2:42 AM 64.4 °F 62.6 °F 94% 29.98 in 10.0 mi NNW 3.5 mph - N/A   Light Drizzle
2:47 AM 64.4 °F 62.6 °F 94% 29.98 in 10.0 mi NW 5.8 mph - N/A   Light Drizzle
2:58 AM 64.4 °F 62.6 °F 94% 29.99 in 10.0 mi NNW 6.9 mph - 0.00 in Rain Light Rain
3:03 AM 64.4 °F 62.6 °F 94% 29.98 in 8.0 mi NNW 5.8 mph - N/A Rain Heavy Rain
3:08 AM 64.4 °F 62.6 °F 94% 29.98 in 6.0 mi NNW 4.6 mph - N/A Rain Heavy Rain
3:58 AM 64.4 °F 64.4 °F 100% 29.98 in 7.0 mi NNE 5.8 mph - 0.09 in Rain Rain
4:18 AM 64.4 °F 64.4 °F 100% 29.96 in 5.0 mi NE 3.5 mph - N/A Rain Rain
4:23 AM 64.4 °F 64.4 °F 100% 29.96 in 6.0 mi ENE 2.3 mph - N/A Rain Light Rain
4:28 AM 64.4 °F 64.4 °F 100% 29.96 in 6.0 mi East 2.3 mph - N/A Rain Light Rain
4:38 AM 64.4 °F 64.4 °F 100% 29.94 in 6.0 mi ENE 4.6 mph - N/A Rain Light Rain
4:58 AM 64.4 °F 64.4 °F 100% 29.98 in 10.0 mi NNW 5.8 mph - 0.10 in   Light Drizzle
4:59 AM 64.4 °F 64.4 °F 100% 29.96 in 10.0 mi NNW 5.8 mph - N/A   Overcast
5:04 AM 64.4 °F 64.4 °F 100% 29.96 in 10.0 mi North 6.9 mph - N/A   Overcast
5:09 AM 64.4 °F 64.4 °F 100% 29.97 in 10.0 mi NNW 6.9 mph - N/A   Overcast
5:12 AM 64.4 °F 64.4 °F 100% 29.97 in 10.0 mi NNW 5.8 mph - N/A   Light Drizzle
5:39 AM 66.2 °F 64.4 °F 94% 29.97 in 10.0 mi North 3.5 mph - N/A   Overcast
5:54 AM 66.2 °F 64.4 °F 94% 29.98 in 10.0 mi NNW 5.8 mph - N/A   Overcast
5:58 AM 66.2 °F 64.4 °F 94% 29.98 in 10.0 mi NNW 4.6 mph - 0.01 in   Overcast
6:08 AM 66.2 °F 64.4 °F 94% 29.98 in 10.0 mi North 4.6 mph - N/A Rain Rain
6:13 AM 66.2 °F 64.4 °F 94% 29.98 in 8.0 mi NNW 4.6 mph - N/A Rain Light Rain
6:23 AM 66.2 °F 64.4 °F 94% 29.98 in 9.0 mi NNW 4.6 mph - N/A   Mostly Cloudy
6:26 AM 66.2 °F 64.4 °F 94% 29.98 in 9.0 mi NNW 4.6 mph - N/A Rain Light Rain
6:44 AM 66.2 °F 64.4 °F 94% 29.98 in 9.0 mi NNE 2.3 mph - N/A   Overcast
6:54 AM 66.2 °F 64.4 °F 94% 29.98 in 8.0 mi NNE 2.3 mph - N/A   Mostly Cloudy
6:58 AM 66.2 °F 64.4 °F 94% 29.99 in 8.0 mi North 3.5 mph - 0.00 in   Mostly Cloudy
7:13 AM 66.2 °F 66.2 °F 100% 29.99 in 8.0 mi North 4.6 mph - N/A   Mostly Cloudy
7:23 AM 66.2 °F 66.2 °F 100% 30.00 in 9.0 mi North 5.8 mph - N/A   Mostly Cloudy
7:43 AM 66.2 °F 66.2 °F 100% 30.00 in 9.0 mi North 5.8 mph - N/A   Overcast
7:53 AM 66.2 °F 66.2 °F 100% 30.00 in 10.0 mi NNE 4.6 mph - N/A   Overcast
7:58 AM 66.2 °F 66.2 °F 100% 30.02 in 10.0 mi NNE 4.6 mph - N/A   Overcast
8:18 AM 68.0 °F 66.2 °F 94% 30.02 in 10.0 mi North 4.6 mph - N/A   Overcast
8:43 AM 68.0 °F 68.0 °F 100% 30.02 in 10.0 mi North 3.5 mph - N/A   Overcast
8:48 AM 68.0 °F 68.0 °F 100% 30.02 in 10.0 mi North 3.5 mph - N/A   Overcast
8:53 AM 68.0 °F 68.0 °F 100% 30.02 in 10.0 mi North 4.6 mph - N/A   Overcast
8:58 AM 68.0 °F 68.0 °F 100% 30.03 in 10.0 mi North 4.6 mph - N/A   Overcast
9:03 AM 68.0 °F 68.0 °F 100% 30.02 in 10.0 mi NNE 5.8 mph - N/A   Overcast
9:23 AM 69.8 °F 68.0 °F 94% 30.02 in 10.0 mi NE 5.8 mph - N/A   Overcast
9:28 AM 69.8 °F 68.0 °F 94% 30.01 in 10.0 mi NE 5.8 mph - N/A   Mostly Cloudy
9:53 AM 71.6 °F 69.8 °F 94% 30.02 in 10.0 mi ENE 9.2 mph - N/A   Mostly Cloudy
9:58 AM 71.6 °F 68.0 °F 88% 30.03 in 10.0 mi NE 11.5 mph - N/A   Mostly Cloudy
10:16 AM 71.6 °F 68.0 °F 88% 30.02 in 10.0 mi ENE 10.4 mph - N/A   Light Drizzle
10:41 AM 71.6 °F 68.0 °F 88% 30.02 in 8.0 mi ENE 8.1 mph - N/A Rain Light Rain
10:46 AM 71.6 °F 68.0 °F 88% 30.02 in 10.0 mi ENE 6.9 mph - N/A Rain Light Rain
10:51 AM 71.6 °F 68.0 °F 88% 30.02 in 10.0 mi ENE 6.9 mph - N/A Rain Light Rain
10:58 AM 71.6 °F 68.0 °F 88% 30.03 in 10.0 mi ENE 8.1 mph - 0.01 in   Light Drizzle
11:14 AM 71.6 °F 69.8 °F 94% 30.02 in 10.0 mi NE 6.9 mph - N/A   Clear
11:17 AM 71.6 °F 68.0 °F 88% 30.02 in 10.0 mi NE 6.9 mph - N/A   Light Drizzle
11:58 AM 71.6 °F 68.0 °F 88% 30.03 in 10.0 mi NE 6.9 mph - 0.01 in   Light Drizzle
12:22 PM 73.4 °F 68.0 °F 83% 30.01 in 10.0 mi NE 5.8 mph - N/A   Clear
12:41 PM 73.4 °F 69.8 °F 88% 30.00 in 10.0 mi NE 5.8 mph - N/A   Light Drizzle
12:51 PM 73.4 °F 68.0 °F 83% 30.00 in 10.0 mi ENE 5.8 mph - N/A   Scattered Clouds
12:58 PM 73.4 °F 68.0 °F 83% 30.00 in 10.0 mi NE 6.9 mph - 0.00 in   Scattered Clouds
12:59 PM 73.4 °F 68.0 °F 83% 29.99 in 10.0 mi NE 6.9 mph - N/A   Light Drizzle
1:14 PM 73.4 °F 68.0 °F 83% 29.99 in 10.0 mi NE 5.8 mph - N/A   Light Drizzle
1:17 PM 73.4 °F 68.0 °F 83% 29.98 in 10.0 mi NE 5.8 mph - N/A   Mostly Cloudy
1:23 PM 73.4 °F 68.0 °F 83% 29.98 in 10.0 mi NE 4.6 mph - N/A   Scattered Clouds
1:25 PM 73.4 °F 68.0 °F 83% 29.98 in 9.0 mi NE 5.8 mph - N/A Rain Light Rain
1:35 PM 73.4 °F 69.8 °F 88% 29.97 in 5.0 mi NNE 4.6 mph - N/A Rain Light Rain
1:46 PM 73.4 °F 69.8 °F 88% 29.97 in 9.0 mi North 9.2 mph - N/A Rain Light Rain
1:56 PM 71.6 °F 69.8 °F 94% 29.97 in 10.0 mi North 9.2 mph - N/A   Light Drizzle
1:59 PM 72.5 °F 69.8 °F 91% 29.98 in 10.0 mi North 10.4 mph - N/A   Light Drizzle
2:04 PM 69.8 °F 68.0 °F 94% 29.97 in 10.0 mi North 9.2 mph - N/A Rain Light Rain
2:09 PM 69.8 °F 68.0 °F 94% 29.97 in 10.0 mi NW 9.2 mph - N/A Rain Light Rain
2:14 PM 69.8 °F 68.0 °F 94% 29.97 in 10.0 mi North 11.5 mph - N/A   Light Drizzle
2:20 PM 69.8 °F 69.8 °F 100% 29.97 in 10.0 mi NNW 12.7 mph - N/A Rain Rain
2:24 PM 69.8 °F 68.0 °F 94% 29.97 in 8.0 mi NNW 15.0 mph - N/A Rain Rain
2:39 PM 69.8 °F 68.0 °F 94% 29.97 in 7.0 mi NNW 12.7 mph - N/A Rain Light Rain
2:49 PM 69.8 °F 68.0 °F 94% 29.96 in 7.0 mi North 15.0 mph - N/A Rain Heavy Rain
2:58 PM 68.0 °F 68.0 °F 100% 29.97 in 10.0 mi NNW 13.8 mph - 0.06 in Rain Light Rain
3:08 PM 68.0 °F 66.2 °F 94% 29.97 in 10.0 mi NNW 12.7 mph - N/A Rain Light Rain
3:15 PM 68.0 °F 66.2 °F 94% 29.97 in 6.0 mi North 13.8 mph - N/A Rain Heavy Rain
3:58 PM 68.0 °F 66.2 °F 94% 29.96 in 10.0 mi North 10.4 mph - 0.09 in Rain Light Rain
4:05 PM 68.0 °F 66.2 °F 94% 29.95 in 10.0 mi North 11.5 mph - N/A   Light Drizzle
4:10 PM 68.0 °F 66.2 °F 94% 29.96 in 10.0 mi North 6.9 mph - N/A   Mostly Cloudy
4:15 PM 68.0 °F 66.2 °F 94% 29.96 in 10.0 mi North 8.1 mph - N/A   Mostly Cloudy
4:17 PM 68.0 °F 66.2 °F 94% 29.96 in 10.0 mi North 8.1 mph - N/A Rain Light Rain
4:32 PM 68.0 °F 66.2 °F 94% 29.96 in 10.0 mi North 9.2 mph - N/A Rain Light Rain
4:37 PM 68.0 °F 66.2 °F 94% 29.96 in 10.0 mi North 10.4 mph - N/A Rain Light Rain
4:42 PM 68.0 °F 66.2 °F 94% 29.96 in 10.0 mi North 9.2 mph - N/A   Light Drizzle
4:45 PM 68.0 °F 66.2 °F 94% 29.97 in 10.0 mi North 9.2 mph - N/A   Mostly Cloudy
4:46 PM 68.0 °F 66.2 °F 94% 29.96 in 10.0 mi North 9.2 mph - N/A   Light Drizzle
4:58 PM 68.0 °F 66.2 °F 94% 29.97 in 10.0 mi North 10.4 mph - 0.00 in Rain Light Rain
5:13 PM 68.0 °F 66.2 °F 94% 29.96 in 10.0 mi North 10.4 mph - N/A   Light Drizzle
5:33 PM 68.0 °F 66.2 °F 94% 29.96 in 9.0 mi North 9.2 mph - N/A Rain Light Rain
5:38 PM 68.0 °F 66.2 °F 94% 29.96 in 9.0 mi North 8.1 mph - N/A Rain Light Rain
5:43 PM 68.0 °F 66.2 °F 94% 29.96 in 10.0 mi North 8.1 mph - N/A Rain Light Rain
5:48 PM 68.0 °F 66.2 °F 94% 29.95 in 10.0 mi North 9.2 mph - N/A   Light Drizzle
5:58 PM 68.0 °F 66.2 °F 94% 29.96 in 10.0 mi North 8.1 mph - 0.01 in Rain Light Rain
6:58 PM 68.0 °F 66.2 °F 94% 29.97 in 10.0 mi NNE 8.1 mph - 0.01 in Rain Light Rain
7:11 PM 66.2 °F 66.2 °F 100% 29.97 in 10.0 mi North 5.8 mph - N/A Rain Light Rain
7:26 PM 66.2 °F 66.2 °F 100% 29.98 in 9.0 mi NE 2.3 mph - N/A Rain Light Rain
7:31 PM 66.2 °F 66.2 °F 100% 29.98 in 5.0 mi ENE 3.5 mph - N/A Rain Light Rain
7:36 PM 66.2 °F 66.2 °F 100% 29.98 in 3.0 mi NE 4.6 mph - N/A Rain Rain
7:58 PM 66.2 °F 64.4 °F 94% 29.99 in 4.0 mi NNE 8.1 mph - 0.09 in Rain Heavy Rain
8:08 PM 64.4 °F 64.4 °F 100% 29.98 in 6.0 mi NE 8.1 mph - N/A Rain Rain
8:33 PM 64.4 °F 64.4 °F 100% 29.97 in 10.0 mi ENE 8.1 mph - N/A   Light Drizzle
8:35 PM 64.4 °F 64.4 °F 100% 29.97 in 10.0 mi ENE 6.9 mph - N/A   Scattered Clouds
8:37 PM 64.4 °F 64.4 °F 100% 29.97 in 10.0 mi ENE 8.1 mph - N/A Rain Light Rain
8:48 PM 64.4 °F 64.4 °F 100% 29.97 in 10.0 mi ENE 5.8 mph - N/A   Scattered Clouds
8:58 PM 64.4 °F 64.4 °F 100% 29.98 in 10.0 mi East 4.6 mph - 0.02 in   Partly Cloudy
9:58 PM 66.2 °F 66.2 °F 100% 29.98 in 10.0 mi North 4.6 mph - N/A   Scattered Clouds
10:08 PM 66.2 °F 66.2 °F 100% 29.98 in 10.0 mi NNW 2.3 mph - N/A   Mostly Cloudy
10:38 PM 66.2 °F 64.4 °F 94% 29.98 in 10.0 mi West 2.3 mph - N/A   Overcast
10:53 PM 66.2 °F 66.2 °F 100% 29.98 in 10.0 mi WNW 4.6 mph - N/A   Overcast
10:58 PM 66.2 °F 66.2 °F 100% 29.99 in 10.0 mi WNW 4.6 mph - N/A   Overcast
11:13 PM 66.2 °F 66.2 °F 100% 29.98 in 9.0 mi WNW 5.8 mph - N/A   Mostly Cloudy
11:18 PM 66.2 °F 66.2 °F 100% 29.98 in 9.0 mi WNW 5.8 mph - N/A   Mostly Cloudy
11:28 PM 66.2 °F 64.4 °F 94% 29.98 in 8.0 mi WNW 5.8 mph - N/A   Mostly Cloudy
11:43 PM 66.2 °F 64.4 °F 94% 29.97 in 7.0 mi NW 5.8 mph - N/A   Scattered Clouds
11:50 PM 64.4 °F 64.4 °F 100% 29.97 in 7.0 mi NW 5.8 mph - N/A Rain Light Rain
11:58 PM 64.4 °F 64.4 °F 100% 29.97 in 6.0 mi NW 3.5 mph - 0.00 in Rain Light Rain